Regional Weather Roundup
Issued by NWS Portland, ME

Current Version | Previous Version | Text Only | Print | Product List | Glossary Off
Versions: 1 2 3 4 5 6 7 8 9 10 11 12 13 14 15 16 17 18 19 20 21 22 23 24 25 26 27 28 29 30 31 32 33 34 35 36 37 38 39 40 41 42 43 44 45 46 47 48 49 50
540 ASUS41 KGYX 111810 RWRGYX WEATHER ROUNDUP FOR MAINE AND NEW HAMPSHIRE NATIONAL WEATHER SERVICE GRAY ME 100 PM EST MON DEC 11 2017 MEZ002-005-006-010-012-015-018-020-021-024-026-027-029-111900- MAINE CITY SKY/WX TMP DP RH WIND PRES REMARKS PORTLAND MOSUNNY 36 20 52 SW9G28 29.90S 6HR MIN TEMP: 31; 6HR MAX TEMP: 37; SANFORD MOSUNNY 35 19 52 W10 29.91F BAR HARBOR CLOUDY 35 26 69 W6 29.89S WISCASSET SUNNY 37 25 61 VRB3 29.91S 6HR MIN TEMP: 27; 6HR MAX TEMP: 37; ROCKLAND SUNNY 35 24 64 W8 29.89S FRYEBURG PTSUNNY 35 21 56 VRB7 29.89S 6HR MIN TEMP: 28; 6HR MAX TEMP: 37; LEWISTONAUBURN MOSUNNY 35 19 52 SW9 29.87F AUGUSTA SUNNY 35 23 61 W5 29.88S 6HR MIN TEMP: 24; 6HR MAX TEMP: 35; WATERVILLE MOSUNNY 35 24 64 SW5 29.84R BANGOR CLOUDY 32 24 72 CALM 29.88S 6HR MIN TEMP: 21; 6HR MAX TEMP: 32; GREENVILLE N/A 20 15 81 NW13 29.81R WCI 7 6HR MIN TEMP: 19; 6HR MAX TEMP: 23; MILLINOCKET CLOUDY 22 17 81 NE3 29.90S 6HR MIN TEMP: 15; 6HR MAX TEMP: 23; HOULTON CLOUDY 17 11 77 N7 29.89S 6HR MIN TEMP: 9; 6HR MAX TEMP: 17; PRESQUE ISLE FLURRIES 15 6 67 N8 29.92R 6HR MIN TEMP: 10; 6HR MAX TEMP: 16; 6HR PCP: TRACE; FRENCHVILLE PTSUNNY 9 -1 64 N9 29.87S 6HR MIN TEMP: 3; 6HR MAX TEMP: 10; 6HR PCP: TRACE; CARIBOU CLOUDY 11 4 73 N6 29.90S 6HR MIN TEMP: 10; 6HR MAX TEMP: 11; 6HR PCP: TRACE; $$ NHZ002-005-008-009-011-012-014-111900- NEW HAMPSHIRE CITY SKY/WX TMP DP RH WIND PRES REMARKS PORTSMOUTH MOSUNNY 37 19 47 W10 29.91S ROCHESTER MOSUNNY 36 19 50 VRB7 29.91S 6HR MIN TEMP: 30; 6HR MAX TEMP: 36; NASHUA CLOUDY 36 20 52 W12G17 29.94F MANCHESTER PTSUNNY 36 19 50 W7G20 29.92F 6HR MIN TEMP: 30; 6HR MAX TEMP: 36; CONCORD CLOUDY 35 20 54 W7 29.92F 6HR MIN TEMP: 30; 6HR MAX TEMP: 36; LACONIA CLOUDY 34 18 52 SW12 29.90F PLYMOUTH LGT SNOW 31 24 75 W5 29.90S BERLIN LGT SNOW 25 18 74 NW3 29.88R 6HR MIN TEMP: 24; 6HR MAX TEMP: 28; 6HR PCP: TRACE; WHITEFIELD FLURRIES 25 17 72 NW7 29.89R 6HR MIN TEMP: 21; 6HR MAX TEMP: 29; 6HR PCP: 0.01; JAFFREY MOSUNNY 33 19 56 VRB7 29.91S 6HR MIN TEMP: 28; 6HR MAX TEMP: 33; LEBANON PTSUNNY 33 21 61 SW8 29.91R 6HR MIN TEMP: 28; 6HR MAX TEMP: 33; MT WASHINGTON SNOW 5 5 100 W35 N/A VSB 0 WCI -20 6HR MIN TEMP: 4; 6HR MAX TEMP: 8; 6HR PCP: 0.09; $$ VTZ005-007-008-111900- VERMONT CITY SKY/WX TMP DP RH WIND PRES REMARKS ST JOHNSBURY N/A 24 15 68 MISG 29.92R MONTPELIER FLURRIES 21 14 74 N7 29.94S BURLINGTON PTSUNNY 21 11 65 N6 30.00S $$ MAZ007-012-024-CTZ003-RIZ002-NYZ038-NYZ072-111900- SOUTHERN NEW ENGLAND AND NY CITY SKY/WX TMP DP RH WIND PRES REMARKS BOSTON MOSUNNY 38 22 52 W15 29.95F WORCESTER SUNNY 31 16 54 W14G22 29.91F NANTUCKET CLOUDY 37 32 82 NW10 29.96S PROVIDENCE MOSUNNY 40 24 53 CALM 29.97F HARTFORD PTSUNNY 36 20 52 W9 29.96F ALBANY FLURRIES 33 22 63 NW12 29.98S NEW YORK CITY MOSUNNY 41 21 44 W8 29.99F $$ ANZ081-ANZ082-ANZ150-NHZ014-MEZ023>029-111900- COASTAL MARINE OBSERVATIONS STATION/POSITION TIME TEMP WIND PRES WAVE AIR SEA DIR/SP/G HT/PER (UTC) (F) (DEG/KT/KT) (MB) (FT/S) MOUNT DESERT ROC 1800 37 280/ 14/ 17 1011.7F MATINICUS ROCK 1700 38 260/ 18/ 22 1011.4F ISLE OF SHOALS 1700 36 270/ 16/ 18 1013.4F JEFFREYS LEDGE 1736 47 N/A 4/11 GEORGES BANK BUO 1650 46 51 1014.0 8/10 $$ .............KEY.............. WCI - WIND CHILL TC - TEMPERATURE IN CELSIUS VSB - VISIBILITY IN MILES HX - HEAT INDEX FAIR- INDICATES FEW OR NO CLOUDS BELOW 12,000 FT, WITH NO SIGNIFICANT WEATHER AND/OR OBSTRUCTIONS TO VISIBILITY.

USA.gov is the U.S. government's official web portal to all federal, state and local government web resources and services.